CW2303 Weather Reports


Display with metric or nautical units.
time (UTC)temp
F
wind
direction
speed
MPH
gust
MPH
rain 1hr
in
rain 24hr
in
rain mn
in
humidity
%
barometer
mb
20260504050543 63 174 3.0 8.0 0.00 0.00 0.00 60 1011.3
20260504045543 63 142 3.0 9.0 0.00 0.00 0.00 61 1011.4
20260504045042 63 190 2.0 8.0 0.00 0.00 0.00 61 1011.4
20260504044559 63 199 3.0 8.0 0.00 0.00 0.00 61 1011.4
20260504044043 63 161 2.0 8.0 0.00 0.00 0.00 62 1011.5
20260504043543 63 202 1.0 8.0 0.00 0.00 0.00 62 1011.6
20260504043057 62 173 2.0 8.0 0.00 0.00 0.00 62 1011.6
20260504042543 62 201 2.0 6.0 0.00 0.00 0.00 62 1011.6
20260504042043 62 192 2.0 6.0 0.00 0.00 0.00 62 1011.7
20260504041553 62 177 1.0 5.0 0.00 0.00 0.00 62 1011.7
20260504041046 62 179 1.0 5.0 0.00 0.00 0.00 62 1011.7
20260504040543 62 170 1.0 4.0 0.00 0.00 0.00 62 1011.8
20260504040106 62 167 1.0 4.0 0.00 0.00 0.00 62 1011.7
20260504035543 62 164 1.0 4.0 0.00 0.00 0.00 62 1011.8
20260504035042 62 158 1.0 4.0 0.00 0.00 0.00 62 1011.8
20260504034612 62 168 1.0 4.0 0.00 0.00 0.00 61 1011.8
20260504034043 62 191 1.0 4.0 0.00 0.00 0.00 61 1011.9
20260504033546 62 188 1.0 8.0 0.00 0.00 0.00 61 1011.9
20260504033056 62 178 2.0 8.0 0.00 0.00 0.00 61 1011.9
20260504032543 62 159 1.0 5.0 0.00 0.00 0.00 61 1012.1
20260504032046 62 169 1.0 3.0 0.00 0.00 0.00 61 1012.0
20260504031550 62 182 1.0 3.0 0.00 0.00 0.00 62 1012.1
20260504031043 62 163 0.0 2.0 0.00 0.00 0.00 62 1012.1
20260504030543 62 159 1.0 3.0 0.00 0.00 0.00 61 1012.1
20260504030118 62 163 1.0 3.0 0.00 0.00 0.00 61 1012.2
20260504025545 62 148 0.0 2.0 0.00 0.00 0.00 61 1012.2
20260504025042 62 165 0.0 3.0 0.00 0.00 0.00 61 1012.2
20260504024559 62 157 0.0 3.0 0.00 0.00 0.00 60 1012.3
20260504024044 62 152 0.0 1.0 0.00 0.00 0.00 60 1012.2
20260504023545 62 0 0.0 1.0 0.00 0.00 0.00 59 1012.2
20260504023055 63 158 0.0 1.0 0.00 0.00 0.00 59 1012.1
20260504022546 63 0 0.0 1.0 0.00 0.00 0.00 58 1012.2
20260504022045 63 147 0.0 1.0 0.00 0.00 0.00 58 1012.1
20260504021554 63 0 0.0 1.0 0.00 0.00 0.00 58 1012.1
20260504021045 64 144 0.0 1.0 0.00 0.00 0.00 57 1012.1
20260504020547 64 0 0.0 1.0 0.00 0.00 0.00 57 1012.1
20260504020106 64 157 0.0 1.0 0.00 0.00 0.00 56 1012.1
20260504015544 64 0 0.0 0.0 0.00 0.00 0.00 55 1012.1
20260504015045 65 0 0.0 1.0 0.00 0.00 0.00 54 1012.1
20260504014556 65 0 0.0 1.0 0.00 0.00 0.00 54 1012.1
20260504014042 66 188 0.0 1.0 0.00 0.00 0.00 53 1012.1
20260504013545 66 0 0.0 1.0 0.00 0.00 0.00 52 1011.9
20260504013054 66 0 0.0 2.0 0.00 0.00 0.00 51 1011.9
20260504012545 67 196 0.0 2.0 0.00 0.00 0.00 49 1011.9
20260504012048 67 155 0.0 2.0 0.00 0.00 0.00 47 1011.9
20260504011548 68 0 0.0 1.0 0.00 0.00 0.00 47 1011.8
20260504011044 68 0 0.0 2.0 0.00 0.00 0.00 46 1011.9
20260504010544 69 0 0.0 2.0 0.00 0.00 0.00 45 1011.9
20260504010051 69 198 0.0 3.0 0.00 0.00 0.00 43 1011.9
20260504005545 70 207 0.0 3.0 0.00 0.00 0.00 43 1011.8
20260504005048 70 210 0.0 2.0 0.00 0.00 0.00 43 1011.9
20260504004552 70 200 0.0 2.0 0.00 0.00 0.00 43 1011.8
20260504004044 71 225 1.0 2.0 0.00 0.00 0.00 42 1011.9
20260504003544 71 227 0.0 3.0 0.00 0.00 0.00 43 1011.9
20260504003051 71 233 1.0 3.0 0.00 0.00 0.00 42 1011.9
20260504002545 72 233 1.0 3.0 0.00 0.00 0.00 42 1011.9
20260504002045 72 239 1.0 4.0 0.00 0.00 0.00 42 1012.0
20260504001606 73 215 1.0 4.0 0.00 0.00 0.00 41 1011.9
20260504001045 73 228 1.0 5.0 0.00 0.00 0.00 39 1012.0
20260504000546 73 259 1.0 7.0 0.00 0.00 0.00 40 1012.0
20260504000057 74 249 2.0 7.0 0.00 0.00 0.00 38 1012.0
20260503235543 74 251 2.0 8.0 0.00 0.00 0.00 37 1012.0
20260503235046 74 230 3.0 8.0 0.00 0.00 0.00 41 1012.0
20260503234555 74 234 4.0 8.0 0.00 0.00 0.00 38 1012.1
20260503234043 74 230 2.0 8.0 0.00 0.00 0.00 37 1012.0
20260503233543 74 217 3.0 8.0 0.00 0.00 0.00 39 1012.1
20260503233100 75 227 3.0 10.0 0.00 0.00 0.00 36 1012.1
20260503232543 75 246 3.0 11.0 0.00 0.00 0.00 36 1012.1
20260503232043 75 174 3.0 11.0 0.00 0.00 0.00 37 1012.1
20260503231555 75 233 3.0 9.0 0.00 0.00 0.00 36 1012.1
20260503231044 75 248 3.0 9.0 0.00 0.00 0.00 35 1012.2
20260503230544 75 202 3.0 9.0 0.00 0.00 0.00 35 1012.2
20260503230053 76 217 4.0 13.0 0.00 0.00 0.00 34 1012.2
20260503225543 76 226 2.0 13.0 0.00 0.00 0.00 37 1012.2
20260503225043 76 261 4.0 11.0 0.00 0.00 0.00 34 1012.2
20260503224554 76 221 5.0 14.0 0.00 0.00 0.00 34 1012.3
20260503224043 77 247 5.0 14.0 0.00 0.00 0.00 34 1012.2
20260503223543 77 217 3.0 15.0 0.00 0.00 0.00 33 1012.2
20260503223053 77 229 5.0 19.0 0.00 0.00 0.00 33 1012.3
20260503222544 77 240 7.0 19.0 0.00 0.00 0.00 34 1012.3
20260503222043 77 257 4.0 17.0 0.00 0.00 0.00 35 1012.4
20260503221554 77 263 9.0 17.0 0.00 0.00 0.00 32 1012.3
20260503221043 78 264 5.0 14.0 0.00 0.00 0.00 34 1012.3
20260503220543 78 252 2.0 14.0 0.00 0.00 0.00 36 1012.4
20260503220055 77 240 6.0 14.0 0.00 0.00 0.00 32 1012.5
20260503215543 77 244 6.0 13.0 0.00 0.00 0.00 37 1012.4
20260503215042 77 246 5.0 15.0 0.00 0.00 0.00 34 1012.5
20260503214601 77 237 6.0 15.0 0.00 0.00 0.00 34 1012.5
20260503214042 77 239 8.0 15.0 0.00 0.00 0.00 34 1012.7
20260503213542 78 216 4.0 17.0 0.00 0.00 0.00 36 1012.7
20260503213054 77 200 6.0 17.0 0.00 0.00 0.00 33 1012.8
20260503212544 77 229 5.0 12.0 0.00 0.00 0.00 34 1012.9
20260503212045 77 219 6.0 12.0 0.00 0.00 0.00 34 1013.0
20260503211554 77 228 7.0 13.0 0.00 0.00 0.00 35 1013.1
20260503211043 77 185 4.0 13.0 0.00 0.00 0.00 40 1013.2
20260503210543 77 227 6.0 19.0 0.00 0.00 0.00 37 1013.2
20260503210051 77 246 5.0 19.0 0.00 0.00 0.00 37 1013.3
20260503205543 77 253 7.0 19.0 0.00 0.00 0.00 34 1013.3
20260503205043 77 254 4.0 13.0 0.00 0.00 0.00 37 1013.4
20260503204559 77 261 3.0 13.0 0.00 0.00 0.00 38 1013.5
20260503204042 77 263 5.0 12.0 0.00 0.00 0.00 33 1013.5
20260503203543 77 207 3.0 10.0 0.00 0.00 0.00 41 1013.6
20260503203052 77 130 3.0 12.0 0.00 0.00 0.00 40 1013.6
20260503202543 77 223 4.0 13.0 0.00 0.00 0.00 39 1013.7
20260503202043 77 245 4.0 13.0 0.00 0.00 0.00 34 1013.8
20260503201553 77 144 3.0 12.0 0.00 0.00 0.00 45 1013.8
20260503201055 76 254 5.0 12.0 0.00 0.00 0.00 37 1013.9
20260503200542 76 217 4.0 12.0 0.00 0.00 0.00 42 1014.1
20260503200056 76 164 6.0 16.0 0.00 0.00 0.00 41 1014.2
20260503195544 76 161 6.0 16.0 0.00 0.00 0.00 41 1014.5
20260503195043 76 188 5.0 16.0 0.00 0.00 0.00 41 1014.5
20260503194555 76 190 6.0 12.0 0.00 0.00 0.00 45 1014.6
20260503194043 75 200 3.0 15.0 0.00 0.00 0.00 46 1014.7
20260503193544 75 203 5.0 15.0 0.00 0.00 0.00 45 1014.7
20260503193109 75 192 5.0 15.0 0.00 0.00 0.00 46 1014.7
20260503192543 75 146 5.0 13.0 0.00 0.00 0.00 44 1014.9
20260503192043 75 201 4.0 13.0 0.00 0.00 0.00 45 1015.0
20260503191554 75 172 3.0 11.0 0.00 0.00 0.00 46 1015.1
20260503191044 74 232 3.0 12.0 0.00 0.00 0.00 46 1015.1
20260503190542 74 246 7.0 14.0 0.00 0.00 0.00 42 1015.2
20260503190107 74 194 5.0 14.0 0.00 0.00 0.00 43 1015.2
20260503185543 74 221 4.0 14.0 0.00 0.00 0.00 45 1015.3
20260503185047 74 213 6.0 14.0 0.00 0.00 0.00 43 1015.2
20260503184553 74 170 6.0 15.0 0.00 0.00 0.00 49 1015.3
20260503184044 74 186 6.0 15.0 0.00 0.00 0.00 45 1015.5
20260503183545 74 155 4.0 13.0 0.00 0.00 0.00 47 1015.5
20260503183102 73 225 7.0 13.0 0.00 0.00 0.00 47 1015.7
20260503182543 74 190 3.0 12.0 0.00 0.00 0.00 47 1015.6
20260503182043 73 156 5.0 11.0 0.00 0.00 0.00 43 1015.7
20260503181555 73 192 4.0 9.0 0.00 0.00 0.00 49 1015.9
20260503181043 73 201 3.0 9.0 0.00 0.00 0.00 51 1015.9
20260503180543 73 234 4.0 11.0 0.00 0.00 0.00 51 1016.0
20260503180059 72 204 3.0 11.0 0.00 0.00 0.00 46 1016.2
20260503175544 72 188 5.0 13.0 0.00 0.00 0.00 48 1016.2
20260503175043 72 200 5.0 13.0 0.00 0.00 0.00 49 1016.3
20260503174553 71 205 4.0 13.0 0.00 0.00 0.00 50 1016.5
20260503174045 71 221 6.0 13.0 0.00 0.00 0.00 49 1016.7
20260503173546 71 151 5.0 11.0 0.00 0.00 0.00 49 1016.8
20260503173110 71 210 5.0 11.0 0.00 0.00 0.00 50 1017.1
20260503172543 70 187 3.0 11.0 0.00 0.00 0.00 50 1017.0
20260503172045 71 219 5.0 11.0 0.00 0.00 0.00 49 1017.2
20260503171558 71 216 4.0 10.0 0.00 0.00 0.00 48 1017.3
20260503171044 70 176 4.0 10.0 0.00 0.00 0.00 51 1017.3
20260503170544 70 173 4.0 8.0 0.00 0.00 0.00 51 1017.3
20260503150543 62 164 4.0 11.0 0.00 0.00 0.00 50 1018.2
20260503150109 62 148 4.0 8.0 0.00 0.00 0.00 50 1018.2
20260503140108 57 180 3.0 9.0 0.00 0.00 0.00 59 1018.7
20260503131042 49 148 2.0 7.0 0.00 0.00 0.00 74 1018.9
20260503130545 48 155 2.0 6.0 0.00 0.00 0.00 76 1019.0
20260503110553 40 0 0.0 1.0 0.00 0.00 0.00 79 1018.7
20260503100106 41 0 0.0 1.0 0.00 0.00 0.00 79 1018.8
20260503081606 40 0 0.0 0.0 0.00 0.00 0.00 85 1019.4
20260503081043 40 0 0.0 0.0 0.00 0.00 0.00 84 1019.4
20260503080553 40 0 0.0 0.0 0.00 0.00 0.00 84 1019.4
20260503080436 40 0 0.0 0.0 0.00 0.00 0.00 84 1019.5
20260503072543 41 0 0.0 0.0 0.00 0.00 0.00 84 1019.8
20260503072043 41 0 0.0 0.0 0.00 0.00 0.00 84 1019.8
20260503071608 41 0 0.0 0.0 0.00 0.00 0.00 85 1019.8
20260503071044 41 0 0.0 0.0 0.00 0.00 0.00 85 1019.9
20260503070544 41 0 0.0 0.0 0.00 0.00 0.00 85 1019.9